Location: ???? ???? ?????
(31.2680°N, 31.7283°E)
Time: 19:45:40
(UTC+00:00)

ADEOS II - Pass Details

Date: 13 July 2020
Orbit: 799 x 801 km, 98.5° (Epoch: 05 August)

Event Time Altitude Azimuth Distance (km) Brightness Sun altitude
Rises 23:40:43 0° 20° (NNE) 3,311 6.4 -31.7°
Reaches altitude 10° 23:43:10 10° 27° (NNE) 2,377 5.4 -31.5°
Enters shadow 23:47:41 44° 83° (E) 1,089 2.9 -31.0°
